Location: Bernay
(48.6766°N, 2.9386°E)
Time: 20:58:35
(UTC+00:00)

Cosmos 1943 - Pass Details

Date: 12 January 2026
Orbit: 830 x 850 km, 71.0° (Epoch: 15 February)

Event Time Altitude Azimuth Distance (km) Brightness Sun altitude
Rises 17:28:23 0° 192° (SSW) 3,367 6.8 -11.6°
Reaches altitude 10° 17:30:50 10° 188° (S) 2,440 6.0 -11.9°
Maximum altitude 17:36:18 57° 111° (ESE) 984 3.3 -12.8°
Enters shadow 17:41:26 12° 36° (NE) 2,325 5.0 -13.6°
